Zurück zum Katalog

STARLINK-36788

AktivKommunikationSSO
NORAD 67819·PAYLOAD·🇺🇸 United States

Gestartet Feb 15, 2026 von Vandenberg Space Force Base

Loading…

Nächste Überflüge (nächste 24 Stunden)

TLE

AktuellSource: CelesTrak SupGP

Epoche: Sep 15, 2026, 02:58 UTC

1 67819C 26032Y   26258.12409722 -.00047029  00000+0 -14597-2 0  2583
2 67819  97.2858  84.6031 0001669  92.0297 176.1124 15.33466525    18

Verfolge STARLINK-36788 in Echtzeit mit AllMySat

Download on the App Store